{"data":{"norad_id":51109,"intl_designator":"2022-005F","name":"STARLINK-3358","alt_names":[],"object_type":"PAYLOAD","status":"ACTIVE","operator":null,"country":"US","launch_date":"2022-01-19","launch_site_code":"AFETR","launch_vehicle":null,"mission":null,"orbit_class":"UNKNOWN","rcs_meters":null,"size_class":null,"mass_kg":null,"dimensions":null,"purposes":["comms"],"wikipedia_slug":null,"has_3d_model":false,"image_url":null,"decayed_at":null,"tle_current":{"epoch":"2026-05-25T04:04:06.578976Z","epoch_age_seconds":54386,"freshness":"FRESH","line1":"1 51109U 22005F   26145.16952059  .00000278  00000+0  35538-4 0  9994","line2":"2 51109  53.2126 305.7399 0001101 104.3920 255.7194 15.08839554240192","mean_motion":15.08839554,"eccentricity":0.0001101,"inclination_deg":53.2126,"raan_deg":305.7399,"arg_perigee_deg":104.392,"mean_anomaly_deg":255.7194,"bstar":3.5538e-5,"rev_number":24019,"period_min":95.437582888286,"perigee_km":538.9830934271,"apogee_km":540.50641098893,"semimajor_km":6917.881752208,"source":"CELESTRAK","updated_at":"2026-05-25T13:38:16.885168Z"}}}